Location: Forli
(44.2227°N, 12.0407°E)
Time: 00:19:49
(UTC+02:00)

PCSat - Pass Details

Date: 20 April 2026
Orbit: 781 x 790 km, 67.1° (Epoch: 19 May)

Event Time Altitude Azimuth Distance (km) Brightness Sun altitude
Rises 00:16:33 0° 325° (NW) 3,293 13.7 -33.0°
Reaches altitude 10° 00:19:00 10° 323° (NW) 2,360 12.7 -33.1°
Enters shadow 00:22:17 37° 308° (NW) 1,224 10.8 -33.3°
